| time (UTC) | temp F | wind direction | speed MPH | gust MPH | rain 1hr in | rain 24hr in | rain mn in | humidity % | barometer mb |
| 20260903111445 | 46 | 320 | 0.0 | 0.0 | 0.00 | 0.00 | 0.00 | 10 | 1008.8 |
| 20260903110942 | 46 | 325 | 0.0 | 0.0 | 0.00 | 0.00 | 0.00 | 10 | 1008.7 |
| 20260903110437 | 46 | 0 | 0.0 | 0.0 | 0.00 | 0.00 | 0.00 | 10 | 1008.9 |
| 20260903105931 | 46 | 358 | 0.0 | 0.0 | 0.00 | 0.00 | 0.00 | 10 | 1008.6 |
| 20260903105427 | 45 | 306 | 0.0 | 0.0 | 0.00 | 0.00 | 0.00 | 10 | 1008.7 |
| 20260903104926 | 45 | 339 | 0.0 | 0.0 | 0.00 | 0.00 | 0.00 | 10 | 1008.7 |
| 20260903104420 | 45 | 7 | 0.0 | 0.0 | 0.00 | 0.00 | 0.00 | 10 | 1008.6 |
| 20260903103917 | 47 | 6 | 0.0 | 0.0 | 0.00 | 0.00 | 0.00 | 10 | 1008.8 |
| 20260903103413 | 46 | 349 | 0.0 | 0.0 | 0.00 | 0.00 | 0.00 | 10 | 1008.8 |
| 20260903102908 | 44 | 302 | 0.0 | 0.0 | 0.00 | 0.00 | 0.00 | 10 | 1008.8 |
| 20260903102403 | 44 | 314 | 0.0 | 0.0 | 0.00 | 0.00 | 0.00 | 10 | 1008.9 |
| 20260903101902 | 45 | 22 | 0.0 | 0.0 | 0.00 | 0.00 | 0.00 | 10 | 1009.0 |
| 20260903101357 | 45 | 303 | 0.0 | 0.0 | 0.00 | 0.00 | 0.00 | 10 | 1008.7 |
| 20260903100853 | 46 | 298 | 0.0 | 0.0 | 0.00 | 0.00 | 0.00 | 10 | 1008.7 |
| 20260903100348 | 46 | 302 | 0.0 | 0.0 | 0.00 | 0.00 | 0.00 | 10 | 1008.8 |
| 20260903095844 | 46 | 308 | 0.0 | 0.0 | 0.00 | 0.00 | 0.00 | 10 | 1008.9 |
| 20260903095339 | 48 | 337 | 0.0 | 0.0 | 0.00 | 0.00 | 0.00 | 10 | 1008.7 |
| 20260903094834 | 49 | 302 | 0.0 | 0.0 | 0.00 | 0.00 | 0.00 | 10 | 1009.0 |
| 20260903094328 | 48 | 336 | 0.0 | 0.0 | 0.00 | 0.00 | 0.00 | 10 | 1008.7 |
| 20260903093824 | 48 | 309 | 0.0 | 0.0 | 0.00 | 0.00 | 0.00 | 10 | 1008.9 |
| 20260903093319 | 51 | 312 | 0.0 | 0.0 | 0.00 | 0.00 | 0.00 | 10 | 1008.6 |
| 20260903092814 | 50 | 330 | 0.0 | 0.0 | 0.00 | 0.00 | 0.00 | 10 | 1008.8 |
| 20260903092309 | 51 | 335 | 0.0 | 0.0 | 0.00 | 0.00 | 0.00 | 10 | 1008.8 |
| 20260903091808 | 49 | 257 | 0.0 | 0.0 | 0.00 | 0.00 | 0.00 | 10 | 1008.7 |
| 20260903091301 | 48 | 359 | 0.0 | 0.0 | 0.00 | 0.00 | 0.00 | 10 | 1008.9 |
| 20260903090758 | 48 | 341 | 0.0 | 0.0 | 0.00 | 0.00 | 0.00 | 10 | 1008.5 |
| 20260903090256 | 48 | 17 | 0.0 | 0.0 | 0.00 | 0.00 | 0.00 | 10 | 1008.3 |
| 20260903085755 | 48 | 0 | 0.0 | 0.0 | 0.00 | 0.00 | 0.00 | 10 | 1008.2 |
| 20260903085250 | 49 | 346 | 0.0 | 0.0 | 0.00 | 0.00 | 0.00 | 10 | 1008.6 |
| 20260903084748 | 49 | 337 | 0.0 | 0.0 | 0.00 | 0.00 | 0.00 | 10 | 1008.6 |
| 20260903084243 | 49 | 355 | 0.0 | 0.0 | 0.00 | 0.00 | 0.00 | 10 | 1008.5 |
| 20260903083739 | 50 | 345 | 0.0 | 0.0 | 0.00 | 0.00 | 0.00 | 10 | 1008.3 |
| 20260903083238 | 51 | 317 | 0.0 | 0.0 | 0.00 | 0.00 | 0.00 | 10 | 1008.5 |
| 20260903082737 | 51 | 23 | 0.0 | 0.0 | 0.00 | 0.00 | 0.00 | 10 | 1008.3 |
| 20260903082233 | 49 | 305 | 0.0 | 0.0 | 0.00 | 0.00 | 0.00 | 10 | 1008.5 |
| 20260903081728 | 49 | 48 | 0.0 | 0.0 | 0.00 | 0.00 | 0.00 | 10 | 1008.6 |
| 20260903081224 | 49 | 48 | 0.0 | 0.0 | 0.00 | 0.00 | 0.00 | 10 | 1008.3 |
| 20260903080720 | 50 | 32 | 0.0 | 0.0 | 0.00 | 0.00 | 0.00 | 10 | 1008.5 |
| 20260903080217 | 50 | 248 | 0.0 | 0.0 | 0.00 | 0.00 | 0.00 | 10 | 1008.5 |
| 20260903075716 | 50 | 238 | 0.0 | 0.0 | 0.00 | 0.00 | 0.00 | 10 | 1008.5 |
| 20260903075212 | 51 | 223 | 0.0 | 0.0 | 0.00 | 0.00 | 0.00 | 10 | 1008.3 |
| 20260903074710 | 50 | 199 | 0.0 | 0.0 | 0.00 | 0.00 | 0.00 | 10 | 1008.5 |
| 20260903074206 | 50 | 181 | 0.0 | 0.0 | 0.00 | 0.00 | 0.00 | 10 | 1008.3 |
| 20260903073701 | 49 | 114 | 0.0 | 0.0 | 0.00 | 0.00 | 0.00 | 10 | 1008.5 |
| 20260903073156 | 50 | 101 | 0.0 | 0.0 | 0.00 | 0.00 | 0.00 | 10 | 1008.3 |
| 20260903072652 | 50 | 188 | 0.0 | 0.0 | 0.00 | 0.00 | 0.00 | 10 | 1008.6 |
| 20260903072149 | 50 | 323 | 0.0 | 0.0 | 0.00 | 0.00 | 0.00 | 10 | 1008.2 |
| 20260903071644 | 50 | 33 | 0.0 | 0.0 | 0.00 | 0.00 | 0.00 | 10 | 1008.3 |
| 20260903071139 | 50 | 13 | 0.0 | 0.0 | 0.00 | 0.00 | 0.00 | 10 | 1008.2 |
| 20260903070634 | 50 | 17 | 0.0 | 0.0 | 0.00 | 0.00 | 0.00 | 10 | 1008.1 |
| 20260903070130 | 50 | 40 | 0.0 | 0.0 | 0.00 | 0.00 | 0.00 | 10 | 1008.2 |
| 20260903065629 | 50 | 38 | 0.0 | 0.0 | 0.00 | 0.00 | 0.00 | 10 | 1008.3 |
| 20260903065124 | 50 | 38 | 0.0 | 0.0 | 0.00 | 0.00 | 0.00 | 10 | 1008.2 |
| 20260903064618 | 50 | 34 | 0.0 | 0.0 | 0.00 | 0.00 | 0.00 | 10 | 1008.3 |
| 20260903064113 | 50 | 345 | 0.0 | 0.0 | 0.00 | 0.00 | 0.00 | 10 | 1008.1 |
| 20260903063609 | 51 | 342 | 0.0 | 0.0 | 0.00 | 0.00 | 0.00 | 10 | 1008.5 |
| 20260903063104 | 50 | 305 | 0.0 | 1.0 | 0.00 | 0.00 | 0.00 | 10 | 1008.6 |
| 20260903062559 | 50 | 335 | 0.0 | 0.0 | 0.00 | 0.00 | 0.00 | 10 | 1008.6 |
| 20260903062054 | 50 | 246 | 0.0 | 0.0 | 0.00 | 0.00 | 0.00 | 10 | 1008.6 |
| 20260903061550 | 51 | 182 | 0.0 | 0.0 | 0.00 | 0.00 | 0.00 | 10 | 1008.5 |
| 20260903061049 | 51 | 154 | 0.0 | 0.0 | 0.00 | 0.00 | 0.00 | 10 | 1008.2 |
| 20260903060549 | 52 | 161 | 0.0 | 0.0 | 0.00 | 0.00 | 0.00 | 10 | 1008.3 |
| 20260903060044 | 53 | 191 | 0.0 | 0.0 | 0.00 | 0.00 | 0.00 | 10 | 1008.3 |
| 20260903055541 | 54 | 197 | 0.0 | 0.0 | 0.00 | 0.11 | 0.11 | 10 | 1008.3 |
| 20260903055040 | 54 | 217 | 0.0 | 0.0 | 0.00 | 0.11 | 0.11 | 10 | 1008.8 |
| 20260903054536 | 55 | 230 | 0.0 | 0.0 | 0.00 | 0.11 | 0.11 | 10 | 1008.7 |
| 20260903054031 | 54 | 250 | 0.0 | 0.0 | 0.00 | 0.11 | 0.11 | 10 | 1008.7 |
| 20260903053526 | 53 | 212 | 0.0 | 0.0 | 0.00 | 0.11 | 0.11 | 10 | 1008.6 |
| 20260903053023 | 53 | 211 | 0.0 | 0.0 | 0.00 | 0.11 | 0.11 | 10 | 1008.6 |
| 20260903052518 | 53 | 222 | 0.0 | 0.0 | 0.00 | 0.11 | 0.11 | 10 | 1008.2 |
| 20260903052014 | 53 | 221 | 0.0 | 0.0 | 0.00 | 0.11 | 0.11 | 10 | 1008.6 |
| 20260903051508 | 54 | 197 | 0.0 | 1.0 | 0.00 | 0.11 | 0.11 | 10 | 1008.6 |
| 20260903051004 | 55 | 238 | 0.0 | 1.0 | 0.00 | 0.11 | 0.11 | 10 | 1008.3 |
| 20260903050503 | 55 | 248 | 0.0 | 0.0 | 0.00 | 0.11 | 0.11 | 10 | 1008.7 |
| 20260903045957 | 54 | 246 | 0.0 | 2.0 | 0.00 | 0.11 | 0.11 | 10 | 1008.6 |
| 20260903045453 | 54 | 239 | 0.0 | 2.0 | 0.00 | 0.11 | 0.11 | 10 | 1009.0 |
| 20260903044949 | 54 | 249 | 0.0 | 2.0 | 0.00 | 0.11 | 0.11 | 10 | 1008.9 |
| 20260903044444 | 54 | 255 | 0.0 | 0.0 | 0.00 | 0.11 | 0.11 | 10 | 1008.8 |
| 20260903043941 | 53 | 244 | 0.0 | 0.0 | 0.00 | 0.11 | 0.11 | 10 | 1008.7 |
| 20260903043436 | 54 | 237 | 0.0 | 0.0 | 0.00 | 0.11 | 0.11 | 10 | 1008.8 |
| 20260903042934 | 53 | 255 | 0.0 | 0.0 | 0.00 | 0.11 | 0.11 | 10 | 1008.9 |
| 20260903042430 | 52 | 242 | 0.0 | 1.0 | 0.00 | 0.11 | 0.11 | 10 | 1008.7 |
| 20260903041926 | 53 | 267 | 0.0 | 0.0 | 0.00 | 0.11 | 0.11 | 10 | 1008.9 |
| 20260903041422 | 53 | 235 | 0.0 | 0.0 | 0.00 | 0.11 | 0.11 | 10 | 1008.8 |
| 20260903040918 | 53 | 234 | 0.0 | 0.0 | 0.00 | 0.11 | 0.11 | 10 | 1008.7 |
| 20260903040417 | 53 | 239 | 0.0 | 0.0 | 0.00 | 0.11 | 0.11 | 10 | 1008.9 |
| 20260903035913 | 53 | 262 | 0.0 | 0.0 | 0.00 | 0.11 | 0.11 | 10 | 1008.7 |
| 20260903035408 | 54 | 254 | 0.0 | 0.0 | 0.00 | 0.11 | 0.11 | 10 | 1008.6 |
| 20260903034903 | 54 | 251 | 0.0 | 1.0 | 0.00 | 0.11 | 0.11 | 10 | 1008.5 |
| 20260903034358 | 54 | 279 | 0.0 | 1.0 | 0.00 | 0.11 | 0.11 | 10 | 1008.6 |
| 20260903033853 | 54 | 229 | 0.0 | 0.0 | 0.00 | 0.11 | 0.11 | 10 | 1008.7 |
| 20260903033348 | 54 | 258 | 0.0 | 1.0 | 0.00 | 0.11 | 0.11 | 10 | 1008.3 |
| 20260903032848 | 53 | 269 | 1.0 | 1.0 | 0.00 | 0.11 | 0.11 | 10 | 1008.7 |
| 20260903032344 | 53 | 268 | 0.0 | 1.0 | 0.00 | 0.11 | 0.11 | 10 | 1008.6 |
| 20260903031839 | 53 | 259 | 0.0 | 1.0 | 0.00 | 0.11 | 0.11 | 10 | 1008.7 |
| 20260903031338 | 53 | 271 | 0.0 | 1.0 | 0.00 | 0.11 | 0.11 | 10 | 1008.7 |
| 20260903030834 | 54 | 288 | 0.0 | 1.0 | 0.00 | 0.11 | 0.11 | 10 | 1008.6 |
| 20260903030330 | 54 | 282 | 0.0 | 1.0 | 0.00 | 0.11 | 0.11 | 10 | 1008.7 |
| 20260903025826 | 55 | 297 | 0.0 | 2.0 | 0.00 | 0.11 | 0.11 | 10 | 1008.1 |
| 20260903025321 | 55 | 280 | 0.0 | 2.0 | 0.00 | 0.11 | 0.11 | 10 | 1008.5 |
| 20260903024821 | 55 | 263 | 0.0 | 15.0 | 0.00 | 0.11 | 0.11 | 10 | 1007.9 |
| 20260903024320 | 56 | 245 | 0.0 | 14.0 | 0.00 | 0.11 | 0.11 | 10 | 1007.8 |
| 20260903023816 | 56 | 297 | 1.0 | 11.0 | 0.00 | 0.11 | 0.11 | 10 | 1007.8 |
| 20260903023311 | 56 | 285 | 0.0 | 3.0 | 0.00 | 0.11 | 0.11 | 10 | 1008.1 |
| 20260903022806 | 56 | 311 | 1.0 | 2.0 | 0.00 | 0.11 | 0.11 | 10 | 1007.8 |
| 20260903022306 | 56 | 288 | 1.0 | 2.0 | 0.00 | 0.11 | 0.11 | 10 | 1008.3 |
| 20260903021759 | 57 | 257 | 3.0 | 18.0 | 0.00 | 0.11 | 0.11 | 10 | 1008.5 |
| 20260903021255 | 58 | 273 | 0.0 | 0.0 | 0.00 | 0.11 | 0.11 | 10 | 1008.3 |
| 20260903020754 | 58 | 256 | 0.0 | 0.0 | 0.00 | 0.11 | 0.11 | 10 | 1007.9 |
| 20260903020249 | 57 | 232 | 0.0 | 0.0 | 0.00 | 0.11 | 0.11 | 10 | 1007.7 |
| 20260903015744 | 58 | 236 | 0.0 | 0.0 | 0.00 | 0.11 | 0.11 | 10 | 1007.6 |
| 20260903015240 | 59 | 233 | 0.0 | 0.0 | 0.00 | 0.11 | 0.11 | 10 | 1007.6 |
| 20260903014735 | 59 | 222 | 0.0 | 0.0 | 0.00 | 0.11 | 0.11 | 10 | 1007.5 |
| 20260903014229 | 59 | 180 | 0.0 | 0.0 | 0.00 | 0.11 | 0.11 | 10 | 1008.0 |
| 20260903013724 | 59 | 196 | 0.0 | 0.0 | 0.00 | 0.11 | 0.11 | 10 | 1008.5 |
| 20260903013223 | 60 | 193 | 0.0 | 0.0 | 0.00 | 0.11 | 0.11 | 10 | 1008.2 |
| 20260903012722 | 59 | 174 | 0.0 | 0.0 | 0.00 | 0.11 | 0.11 | 10 | 1008.2 |
| 20260903012221 | 59 | 200 | 0.0 | 0.0 | 0.00 | 0.11 | 0.11 | 10 | 1008.1 |
| 20260903011716 | 59 | 175 | 0.0 | 0.0 | 0.00 | 0.11 | 0.11 | 10 | 1008.6 |
| 20260903011210 | 59 | 153 | 0.0 | 0.0 | 0.00 | 0.11 | 0.11 | 10 | 1008.2 |
| 20260903010706 | 60 | 178 | 0.0 | 0.0 | 0.00 | 0.11 | 0.11 | 10 | 1008.1 |
| 20260903010205 | 60 | 119 | 0.0 | 0.0 | 0.00 | 0.11 | 0.11 | 10 | 1008.1 |
| 20260903005704 | 59 | 210 | 0.0 | 0.0 | 0.00 | 0.11 | 0.11 | 10 | 1007.9 |
| 20260903005200 | 58 | 31 | 0.0 | 0.0 | 0.00 | 0.11 | 0.11 | 10 | 1007.4 |
| 20260903004655 | 58 | 21 | 0.0 | 0.0 | 0.00 | 0.11 | 0.11 | 10 | 1007.2 |
| 20260903004150 | 57 | 30 | 0.0 | 0.0 | 0.00 | 0.11 | 0.11 | 10 | 1007.9 |
| 20260903003646 | 57 | 45 | 0.0 | 0.0 | 0.00 | 0.11 | 0.11 | 10 | 1008.1 |
| 20260903003141 | 57 | 53 | 0.0 | 0.0 | 0.00 | 0.11 | 0.11 | 10 | 1008.9 |
| 20260903002636 | 57 | 48 | 0.0 | 0.0 | 0.00 | 0.11 | 0.11 | 10 | 1008.9 |
| 20260903002130 | 57 | 36 | 0.0 | 0.0 | 0.07 | 0.11 | 0.11 | 10 | 1009.2 |
| 20260903001624 | 58 | 6 | 0.0 | 0.0 | 0.00 | 0.10 | 0.10 | 10 | 1009.3 |
| 20260903001119 | 59 | 34 | 0.0 | 0.0 | 0.05 | 0.10 | 0.10 | 10 | 1009.7 |
| 20260903000615 | 59 | 266 | 0.0 | 2.0 | 0.12 | 0.10 | 0.10 | 10 | 1010.0 |
| 20260903000114 | 56 | 220 | 0.0 | 1.0 | 0.19 | 0.09 | 0.09 | 10 | 1010.1 |
| 20260902235613 | 57 | 217 | 0.0 | 0.0 | 0.14 | 0.07 | 0.07 | 10 | 1010.4 |
| 20260902235108 | 57 | 233 | 0.0 | 0.0 | 0.24 | 0.06 | 0.06 | 10 | 1010.2 |
| 20260902234602 | 57 | 243 | 0.0 | 1.0 | 0.12 | 0.04 | 0.04 | 10 | 1009.7 |
| 20260902234101 | 57 | 248 | 20.0 | 25.0 | 0.07 | 0.02 | 0.02 | 10 | 1009.3 |
| 20260902233556 | 58 | 253 | 1.0 | 24.0 | 0.00 | 0.01 | 0.01 | 10 | 1008.9 |
| 20260902233050 | 58 | 255 | 0.0 | 15.0 | 0.00 | 0.01 | 0.01 | 10 | 1009.0 |
| 20260902232549 | 58 | 248 | 0.0 | 23.0 | 0.05 | 0.01 | 0.01 | 10 | 1009.0 |
| 20260902232044 | 58 | 246 | 20.0 | 29.0 | 0.05 | 0.01 | 0.01 | 10 | 1008.8 |
| 20260902231538 | 58 | 223 | 24.0 | 29.0 | 0.00 | 0.00 | 0.00 | 10 | 1008.5 |
| 20260902231033 | 59 | 249 | 22.0 | 31.0 | 0.00 | 0.00 | 0.00 | 10 | 1008.5 |
| 20260902230532 | 60 | 239 | 12.0 | 20.0 | 0.00 | 0.00 | 0.00 | 10 | 1007.7 |
| 20260902230027 | 73 | 247 | 21.0 | 29.0 | 0.00 | 0.00 | 0.00 | 10 | 1007.0 |
| 20260902225522 | 79 | 271 | 19.0 | 25.0 | 0.00 | 0.00 | 0.00 | 10 | 1005.2 |
| 20260902225021 | 80 | 220 | 0.0 | 2.0 | 0.00 | 0.00 | 0.00 | 10 | 1005.0 |
| 20260902224520 | 81 | 213 | 0.0 | 2.0 | 0.00 | 0.00 | 0.00 | 10 | 1004.6 |
| 20260902224017 | 81 | 199 | 0.0 | 1.0 | 0.00 | 0.00 | 0.00 | 10 | 1004.6 |
| 20260902223513 | 82 | 204 | 0.0 | 1.0 | 0.00 | 0.00 | 0.00 | 10 | 1004.9 |
| 20260902223012 | 82 | 201 | 0.0 | 3.0 | 0.00 | 0.00 | 0.00 | 10 | 1004.8 |
| 20260902222510 | 82 | 164 | 1.0 | 1.0 | 0.00 | 0.00 | 0.00 | 10 | 1004.8 |
| 20260902222009 | 82 | 224 | 0.0 | 0.0 | 0.00 | 0.00 | 0.00 | 10 | 1004.7 |
| 20260902221504 | 83 | 252 | 0.0 | 0.0 | 0.00 | 0.00 | 0.00 | 10 | 1004.9 |
| 20260902220959 | 83 | 336 | 0.0 | 1.0 | 0.00 | 0.00 | 0.00 | 10 | 1004.5 |
| 20260902220459 | 84 | 164 | 1.0 | 3.0 | 0.00 | 0.00 | 0.00 | 10 | 1004.9 |
| 20260902215948 | 85 | 223 | 0.0 | 0.0 | 0.00 | 0.00 | 0.00 | 10 | 1005.0 |
| 20260902215444 | 83 | 187 | 0.0 | 0.0 | 0.00 | 0.00 | 0.00 | 10 | 1005.0 |
| 20260902214939 | 83 | 158 | 0.0 | 0.0 | 0.00 | 0.00 | 0.00 | 10 | 1005.0 |
| 20260902214433 | 84 | 183 | 0.0 | 0.0 | 0.00 | 0.00 | 0.00 | 10 | 1005.2 |
| 20260902213933 | 82 | 138 | 0.0 | 0.0 | 0.00 | 0.00 | 0.00 | 10 | 1005.0 |
| 20260902213429 | 83 | 183 | 0.0 | 2.0 | 0.00 | 0.00 | 0.00 | 10 | 1005.3 |
| 20260902212928 | 83 | 173 | 0.0 | 1.0 | 0.00 | 0.00 | 0.00 | 10 | 1005.5 |
| 20260902212424 | 83 | 290 | 0.0 | 1.0 | 0.00 | 0.00 | 0.00 | 10 | 1005.6 |
| 20260902211920 | 82 | 221 | 0.0 | 0.0 | 0.00 | 0.00 | 0.00 | 10 | 1005.5 |
| 20260902211416 | 82 | 171 | 0.0 | 2.0 | 0.00 | 0.00 | 0.00 | 10 | 1005.8 |
| 20260902210911 | 81 | 199 | 1.0 | 2.0 | 0.00 | 0.00 | 0.00 | 10 | 1005.6 |
| 20260902210410 | 82 | 200 | 0.0 | 0.0 | 0.00 | 0.00 | 0.00 | 10 | 1005.8 |
| 20260902205909 | 82 | 167 | 0.0 | 0.0 | 0.00 | 0.00 | 0.00 | 10 | 1006.0 |
| 20260902205404 | 82 | 168 | 0.0 | 2.0 | 0.00 | 0.00 | 0.00 | 10 | 1006.1 |
| 20260902204900 | 79 | 150 | 1.0 | 2.0 | 0.00 | 0.00 | 0.00 | 10 | 1006.0 |
| 20260902204359 | 79 | 195 | 0.0 | 2.0 | 0.00 | 0.00 | 0.00 | 10 | 1006.4 |
| 20260902203855 | 79 | 202 | 1.0 | 2.0 | 0.00 | 0.00 | 0.00 | 10 | 1006.4 |
| 20260902203350 | 79 | 158 | 0.0 | 0.0 | 0.00 | 0.00 | 0.00 | 10 | 1006.6 |
| 20260902202850 | 78 | 165 | 0.0 | 0.0 | 0.00 | 0.00 | 0.00 | 10 | 1006.7 |
| 20260902202346 | 79 | 209 | 1.0 | 3.0 | 0.00 | 0.00 | 0.00 | 10 | 1006.6 |
| 20260902201842 | 78 | 142 | 0.0 | 1.0 | 0.00 | 0.00 | 0.00 | 10 | 1006.8 |
| 20260902201342 | 78 | 206 | 0.0 | 0.0 | 0.00 | 0.00 | 0.00 | 10 | 1006.9 |
| 20260902200837 | 79 | 197 | 0.0 | 0.0 | 0.00 | 0.00 | 0.00 | 10 | 1006.8 |
| 20260902200332 | 79 | 203 | 0.0 | 1.0 | 0.00 | 0.00 | 0.00 | 10 | 1006.8 |
| 20260902195828 | 78 | 203 | 0.0 | 0.0 | 0.00 | 0.00 | 0.00 | 10 | 1007.1 |
| 20260902195327 | 79 | 223 | 0.0 | 0.0 | 0.00 | 0.00 | 0.00 | 10 | 1007.0 |
| 20260902194822 | 79 | 216 | 0.0 | 0.0 | 0.00 | 0.00 | 0.00 | 10 | 1007.0 |
| 20260902194316 | 78 | 265 | 0.0 | 0.0 | 0.00 | 0.00 | 0.00 | 10 | 1006.8 |
| 20260902193812 | 78 | 204 | 0.0 | 1.0 | 0.00 | 0.00 | 0.00 | 10 | 1007.0 |
| 20260902193308 | 77 | 231 | 0.0 | 2.0 | 0.00 | 0.00 | 0.00 | 10 | 1007.0 |
| 20260902192807 | 77 | 240 | 0.0 | 0.0 | 0.00 | 0.00 | 0.00 | 10 | 1007.0 |
| 20260902192307 | 77 | 230 | 0.0 | 0.0 | 0.00 | 0.00 | 0.00 | 10 | 1007.2 |
| 20260902191805 | 77 | 212 | 0.0 | 0.0 | 0.00 | 0.00 | 0.00 | 10 | 1007.5 |
| 20260902191301 | 78 | 226 | 0.0 | 0.0 | 0.00 | 0.00 | 0.00 | 10 | 1007.4 |
| 20260902190756 | 78 | 217 | 0.0 | 0.0 | 0.00 | 0.00 | 0.00 | 10 | 1007.5 |
| 20260902190255 | 77 | 183 | 0.0 | 0.0 | 0.00 | 0.00 | 0.00 | 10 | 1007.5 |
| 20260902185751 | 77 | 170 | 0.0 | 2.0 | 0.00 | 0.00 | 0.00 | 10 | 1007.7 |
| 20260902185246 | 77 | 279 | 0.0 | 0.0 | 0.00 | 0.00 | 0.00 | 10 | 1007.8 |
| 20260902184742 | 76 | 202 | 0.0 | 0.0 | 0.00 | 0.00 | 0.00 | 10 | 1007.7 |
| 20260902184243 | 77 | 202 | 0.0 | 1.0 | 0.00 | 0.00 | 0.00 | 10 | 1007.7 |
| 20260902183738 | 75 | 253 | 0.0 | 0.0 | 0.00 | 0.00 | 0.00 | 10 | 1007.8 |
| 20260902183234 | 76 | 223 | 0.0 | 0.0 | 0.00 | 0.00 | 0.00 | 10 | 1007.9 |
| 20260902182730 | 76 | 202 | 0.0 | 2.0 | 0.00 | 0.00 | 0.00 | 10 | 1007.9 |
| 20260902182227 | 77 | 231 | 0.0 | 0.0 | 0.00 | 0.00 | 0.00 | 10 | 1007.9 |
| 20260902181723 | 76 | 213 | 0.0 | 0.0 | 0.00 | 0.00 | 0.00 | 10 | 1008.3 |
| 20260902181222 | 75 | 196 | 1.0 | 3.0 | 0.00 | 0.00 | 0.00 | 10 | 1008.0 |
| 20260902180717 | 75 | 229 | 0.0 | 2.0 | 0.00 | 0.00 | 0.00 | 10 | 1008.1 |
| 20260902180213 | 75 | 191 | 0.0 | 2.0 | 0.00 | 0.00 | 0.00 | 10 | 1008.3 |
| 20260902175708 | 76 | 209 | 0.0 | 2.0 | 0.00 | 0.00 | 0.00 | 10 | 1008.1 |
| 20260902175204 | 75 | 240 | 0.0 | 1.0 | 0.00 | 0.00 | 0.00 | 10 | 1008.3 |
| 20260902174659 | 75 | 219 | 0.0 | 0.0 | 0.00 | 0.00 | 0.00 | 10 | 1008.3 |
| 20260902174155 | 74 | 232 | 0.0 | 2.0 | 0.00 | 0.00 | 0.00 | 10 | 1008.5 |
| 20260902173651 | 75 | 279 | 0.0 | 3.0 | 0.00 | 0.00 | 0.00 | 10 | 1008.6 |
| 20260902173145 | 74 | 232 | 0.0 | 1.0 | 0.00 | 0.00 | 0.00 | 10 | 1008.1 |
| 20260902172639 | 75 | 253 | 0.0 | 2.0 | 0.00 | 0.00 | 0.00 | 10 | 1008.6 |
| 20260902172138 | 74 | 269 | 0.0 | 0.0 | 0.00 | 0.00 | 0.00 | 10 | 1008.5 |
| 20260902171634 | 73 | 232 | 1.0 | 2.0 | 0.00 | 0.00 | 0.00 | 10 | 1008.5 |
| 20260902171130 | 74 | 255 | 0.0 | 2.0 | 0.00 | 0.00 | 0.00 | 10 | 1008.2 |
| 20260902170625 | 74 | 264 | 1.0 | 2.0 | 0.00 | 0.00 | 0.00 | 10 | 1008.6 |
| 20260902170121 | 73 | 241 | 2.0 | 2.0 | 0.00 | 0.00 | 0.00 | 10 | 1008.2 |
| 20260902165621 | 73 | 240 | 0.0 | 0.0 | 0.00 | 0.00 | 0.00 | 10 | 1008.3 |
| 20260902165115 | 74 | 242 | 0.0 | 2.0 | 0.00 | 0.00 | 0.00 | 10 | 1008.5 |
| 20260902164610 | 73 | 250 | 0.0 | 0.0 | 0.00 | 0.00 | 0.00 | 10 | 1008.3 |
| 20260902164109 | 72 | 233 | 0.0 | 1.0 | 0.00 | 0.00 | 0.00 | 10 | 1008.2 |
| 20260902163605 | 72 | 283 | 0.0 | 1.0 | 0.00 | 0.00 | 0.00 | 10 | 1008.2 |
| 20260902163103 | 71 | 251 | 0.0 | 0.0 | 0.00 | 0.00 | 0.00 | 10 | 1008.3 |
| 20260902162602 | 71 | 237 | 0.0 | 2.0 | 0.00 | 0.00 | 0.00 | 10 | 1008.3 |
| 20260902162057 | 71 | 242 | 0.0 | 0.0 | 0.00 | 0.00 | 0.00 | 10 | 1008.5 |
| 20260902161552 | 70 | 229 | 0.0 | 0.0 | 0.00 | 0.00 | 0.00 | 10 | 1008.9 |
| 20260902161048 | 71 | 236 | 0.0 | 0.0 | 0.00 | 0.00 | 0.00 | 10 | 1008.5 |
| 20260902160544 | 72 | 259 | 0.0 | 0.0 | 0.00 | 0.00 | 0.00 | 10 | 1008.7 |
| 20260902160039 | 72 | 236 | 0.0 | 0.0 | 0.00 | 0.00 | 0.00 | 10 | 1008.7 |
| 20260902155532 | 72 | 245 | 0.0 | 0.0 | 0.00 | 0.00 | 0.00 | 10 | 1008.5 |
| 20260902155031 | 72 | 238 | 0.0 | 1.0 | 0.00 | 0.00 | 0.00 | 10 | 1008.6 |
| 20260902154527 | 73 | 262 | 0.0 | 1.0 | 0.00 | 0.00 | 0.00 | 10 | 1008.7 |
| 20260902154021 | 73 | 238 | 1.0 | 1.0 | 0.00 | 0.00 | 0.00 | 10 | 1008.6 |
| 20260902153520 | 73 | 247 | 0.0 | 1.0 | 0.00 | 0.00 | 0.00 | 10 | 1008.8 |
| 20260902153016 | 73 | 296 | 0.0 | 1.0 | 0.00 | 0.00 | 0.00 | 10 | 1008.5 |
| 20260902152512 | 72 | 228 | 0.0 | 1.0 | 0.00 | 0.00 | 0.00 | 10 | 1009.0 |
| 20260902152007 | 71 | 282 | 0.0 | 0.0 | 0.00 | 0.00 | 0.00 | 10 | 1009.0 |
| 20260902151503 | 69 | 265 | 0.0 | 1.0 | 0.00 | 0.00 | 0.00 | 10 | 1009.0 |
| 20260902150956 | 67 | 229 | 0.0 | 0.0 | 0.00 | 0.00 | 0.00 | 10 | 1008.9 |
| 20260902150452 | 67 | 277 | 0.0 | 0.0 | 0.00 | 0.00 | 0.00 | 10 | 1009.0 |
| 20260902145952 | 67 | 278 | 0.0 | 0.0 | 0.00 | 0.00 | 0.00 | 10 | 1009.1 |
| 20260902145448 | 67 | 293 | 0.0 | 0.0 | 0.00 | 0.00 | 0.00 | 10 | 1009.2 |
| 20260902144947 | 67 | 322 | 0.0 | 0.0 | 0.00 | 0.00 | 0.00 | 10 | 1009.2 |
| 20260902144444 | 67 | 277 | 0.0 | 0.0 | 0.00 | 0.00 | 0.00 | 10 | 1009.3 |
| 20260902143938 | 66 | 301 | 0.0 | 0.0 | 0.00 | 0.00 | 0.00 | 10 | 1009.3 |
| 20260902143434 | 65 | 298 | 0.0 | 0.0 | 0.00 | 0.00 | 0.00 | 10 | 1009.3 |
| 20260902142928 | 65 | 342 | 0.0 | 2.0 | 0.00 | 0.00 | 0.00 | 10 | 1009.2 |
| 20260902142425 | 65 | 318 | 0.0 | 1.0 | 0.00 | 0.00 | 0.00 | 10 | 1009.6 |
| 20260902141920 | 65 | 320 | 0.0 | 0.0 | 0.00 | 0.00 | 0.00 | 10 | 1009.4 |
| 20260902141415 | 66 | 308 | 0.0 | 1.0 | 0.00 | 0.00 | 0.00 | 10 | 1009.4 |
| 20260902140914 | 67 | 281 | 0.0 | 0.0 | 0.00 | 0.00 | 0.00 | 10 | 1009.4 |
| 20260902140410 | 67 | 294 | 0.0 | 1.0 | 0.00 | 0.00 | 0.00 | 10 | 1009.3 |
| 20260902135909 | 66 | 276 | 0.0 | 0.0 | 0.00 | 0.00 | 0.00 | 10 | 1009.3 |
| 20260902135406 | 65 | 35 | 0.0 | 0.0 | 0.00 | 0.00 | 0.00 | 10 | 1009.2 |
| 20260902134904 | 64 | 341 | 0.0 | 0.0 | 0.00 | 0.00 | 0.00 | 10 | 1009.1 |
| 20260902134400 | 63 | 257 | 0.0 | 1.0 | 0.00 | 0.00 | 0.00 | 10 | 1009.4 |
| 20260902133855 | 62 | 290 | 0.0 | 0.0 | 0.00 | 0.00 | 0.00 | 10 | 1009.2 |
| 20260902133355 | 61 | 309 | 0.0 | 0.0 | 0.00 | 0.00 | 0.00 | 10 | 1009.0 |
| 20260902132850 | 60 | 315 | 0.0 | 0.0 | 0.00 | 0.00 | 0.00 | 10 | 1009.0 |
| 20260902132345 | 60 | 301 | 0.0 | 0.0 | 0.00 | 0.00 | 0.00 | 10 | 1009.1 |
| 20260902131841 | 58 | 329 | 0.0 | 0.0 | 0.00 | 0.00 | 0.00 | 10 | 1008.9 |
| 20260902131337 | 58 | 27 | 0.0 | 0.0 | 0.00 | 0.00 | 0.00 | 10 | 1009.2 |
| 20260902130836 | 57 | 246 | 0.0 | 0.0 | 0.00 | 0.00 | 0.00 | 10 | 1009.2 |
| 20260902130332 | 55 | 240 | 0.0 | 0.0 | 0.00 | 0.00 | 0.00 | 10 | 1009.0 |
| 20260902125827 | 53 | 233 | 0.0 | 0.0 | 0.00 | 0.00 | 0.00 | 10 | 1008.8 |
| 20260902125323 | 51 | 279 | 0.0 | 0.0 | 0.00 | 0.00 | 0.00 | 10 | 1008.9 |
| 20260902124819 | 51 | 37 | 0.0 | 0.0 | 0.00 | 0.00 | 0.00 | 10 | 1008.6 |
| 20260902124315 | 51 | 35 | 0.0 | 0.0 | 0.00 | 0.00 | 0.00 | 10 | 1008.8 |
| 20260902123809 | 51 | 41 | 0.0 | 0.0 | 0.00 | 0.00 | 0.00 | 10 | 1008.8 |
| 20260902123306 | 50 | 50 | 0.0 | 0.0 | 0.00 | 0.00 | 0.00 | 10 | 1008.8 |
| 20260902122759 | 51 | 17 | 0.0 | 0.0 | 0.00 | 0.00 | 0.00 | 10 | 1008.9 |
| 20260902122255 | 51 | 29 | 0.0 | 0.0 | 0.00 | 0.00 | 0.00 | 10 | 1008.7 |
| 20260902121754 | 51 | 328 | 0.0 | 0.0 | 0.00 | 0.00 | 0.00 | 10 | 1008.9 |
| 20260902121250 | 52 | 303 | 0.0 | 0.0 | 0.00 | 0.00 | 0.00 | 10 | 1008.8 |
| 20260902120745 | 52 | 301 | 0.0 | 0.0 | 0.00 | 0.00 | 0.00 | 10 | 1009.0 |
| 20260902120241 | 53 | 312 | 0.0 | 0.0 | 0.00 | 0.00 | 0.00 | 10 | 1009.0 |
| 20260902115736 | 54 | 294 | 0.0 | 0.0 | 0.00 | 0.00 | 0.00 | 10 | 1009.6 |
| 20260902115232 | 54 | 302 | 0.0 | 0.0 | 0.00 | 0.00 | 0.00 | 10 | 1009.1 |
| 20260902114728 | 54 | 317 | 0.0 | 0.0 | 0.00 | 0.00 | 0.00 | 10 | 1009.3 |
| 20260902114224 | 54 | 309 | 0.0 | 0.0 | 0.00 | 0.00 | 0.00 | 10 | 1009.3 |
| 20260902113723 | 53 | 315 | 0.0 | 0.0 | 0.00 | 0.00 | 0.00 | 10 | 1009.8 |
| 20260902113219 | 51 | 332 | 0.0 | 0.0 | 0.00 | 0.00 | 0.00 | 10 | 1009.6 |
| 20260902112713 | 51 | 330 | 0.0 | 0.0 | 0.00 | 0.00 | 0.00 | 10 | 1009.7 |
| 20260902112210 | 50 | 311 | 0.0 | 0.0 | 0.00 | 0.00 | 0.00 | 10 | 1009.9 |
| 20260902111705 | 48 | 5 | 0.0 | 0.0 | 0.00 | 0.00 | 0.00 | 10 | 1009.7 |